Нижний Пяндж

Таджикистан     37°12′47″N   68°34′48″E
темп.,
°C
ветер,
м/с
пор.,
м/с
влажн.,
%
обл.,
%
осадки,
мм/ч
давл.,
гПа
погр.,
м
12 августа, пт
пт1223:00+27з22203 0.0 100511
02:00+25ссв22222 0.0 100511
05:00+24с22250 0.0 100611
08:00+29ссз11200 0.0 1007223
11:00+34з22150 0.0 10051239
14:00+37з43130 0.0 10022119
17:00+38зюз44120 0.0 10011996
20:00+32юз45170 0.0 100139
13 августа, сб
сб1323:00+29зюз33190 0.0 100211
02:00+26ссв12230 0.0 100311
05:00+24ссв22260 0.0 100411
08:00+29с22210 0.0 1005184
11:00+36зсз23130 0.0 10041377
14:00+39з54110 0.0 10012078
17:00+39з54110 0.0 9992201
20:00+33зюз56140 0.0 100059
14 августа, вс
вс1423:00+30з33170 0.0 100014
02:00+26ссв11210 0.0 100111
05:00+24св22230 0.0 100211
08:00+30ссв22180 0.0 1003182
11:00+36з12125 0.0 10021037
14:00+39з321082 0.0 10002033
17:00+40з43103 0.0 9982150
20:00+33зюз44143 0.0 99919
15 августа, пн
пн1523:00+30з23153 0.0 100011
02:00+27св11205 0.0 100011
05:00+25ссв222215 0.0 100113
08:00+31ссз12174 0.0 1003180
11:00+37з23115 0.0 10021188
14:00+40з5495 0.0 10002066
17:00+41з5590 0.0 9992253
20:00+34юз44135 0.0 100026
16 августа, вт
вт1623:00+31з33165 0.0 100112
02:00+28ююз12194 0.0 100211
05:00+26ссз12215 0.0 100312
08:00+31ссз12165 0.0 1004167
11:00+37з45111 0.0 10041280
14:00+40з5590 0.0 10012401
17:00+40з7693 0.0 10002405
20:00+33юз33140 0.0 100112